Tiempo cada hora Abramkovo

Hoy, 19 Octubre, Lunes

Tiempo Temperatura Precipitaciones Viento Presión Humedad
00:00 +2°C° 0 mm 5 mps 734 mmHg 88%
01:00 +1°C° 0 mm 4 mps 734 mmHg 89%
02:00 0°C° 0 mm 4 mps 735 mmHg 90%
03:00 0°C° 0 mm 4 mps 735 mmHg 91%
04:00 0°C° 0 mm 4 mps 736 mmHg 92%
05:00 -1°C° 0 mm 4 mps 736 mmHg 93%
06:00 0°C° 0 mm 4 mps 736 mmHg 91%
07:00 0°C° 0 mm 4 mps 737 mmHg 90%
08:00 0°C° 0 mm 4 mps 737 mmHg 89%
09:00 +1°C° 0 mm 4 mps 738 mmHg 85%
10:00 +2°C° 0 mm 5 mps 738 mmHg 81%
11:00 +3°C° 0 mm 5 mps 738 mmHg 78%
12:00 +3°C° 0.2 mm 6 mps 738 mmHg 72%
13:00 +4°C° 0.2 mm 6 mps 738 mmHg 67%
14:00 +4°C° 0 mm 7 mps 738 mmHg 62%
15:00 +3°C° 0 mm 6 mps 738 mmHg 65%
16:00 +2°C° 0 mm 5 mps 738 mmHg 68%
17:00 +3°C° 0 mm 4 mps 738 mmHg 72%
18:00 +2°C° 0.1 mm 5 mps 739 mmHg 73%
19:00 +2°C° 0.1 mm 5 mps 739 mmHg 75%
20:00 +2°C° 0.1 mm 6 mps 739 mmHg 76%
21:00 +1°C° 0 mm 6 mps 739 mmHg 78%
22:00 +1°C° 0 mm 6 mps 739 mmHg 79%
23:00 +1°C° 0 mm 6 mps 739 mmHg 80%

Mañana, 20 Octubre, Martes

Tiempo Temperatura Precipitaciones Viento Presión Humedad
00:00 +1°C° 0 mm 6 mps 740 mmHg 81%
01:00 0°C° 0 mm 5 mps 740 mmHg 83%
02:00 0°C° 0 mm 5 mps 740 mmHg 84%
03:00 -1°C° 0 mm 6 mps 740 mmHg 84%
04:00 -1°C° 0 mm 6 mps 740 mmHg 85%
05:00 -1°C° 0 mm 6 mps 740 mmHg 85%
06:00 -1°C° 0 mm 6 mps 740 mmHg 83%
07:00 -1°C° 0 mm 6 mps 740 mmHg 82%
08:00 +1°C° 0 mm 6 mps 740 mmHg 80%
09:00 +1°C° 0 mm 6 mps 741 mmHg 80%
10:00 +1°C° 0 mm 6 mps 741 mmHg 79%
11:00 +1°C° 0 mm 6 mps 742 mmHg 78%
12:00 +2°C° 0.1 mm 6 mps 743 mmHg 74%
13:00 +2°C° 0.1 mm 6 mps 743 mmHg 70%
14:00 +2°C° 0.1 mm 6 mps 744 mmHg 67%
15:00 +2°C° 0 mm 5 mps 745 mmHg 69%
16:00 +1°C° 0 mm 4 mps 745 mmHg 71%
17:00 +1°C° 0 mm 4 mps 745 mmHg 73%
18:00 +2°C° 0 mm 3 mps 746 mmHg 74%
19:00 +3°C° 0 mm 2 mps 746 mmHg 74%
20:00 +3°C° 0 mm 2 mps 746 mmHg 75%
21:00 +2°C° 0 mm 2 mps 746 mmHg 78%
22:00 +2°C° 0 mm 2 mps 746 mmHg 80%
23:00 +2°C° 0 mm 2 mps 747 mmHg 83%

Pasado mañana, 21 Octubre, Miércoles

Tiempo Temperatura Precipitaciones Viento Presión Humedad
00:00 +2°C° 0 mm 2 mps 747 mmHg 86%
01:00 +2°C° 0 mm 2 mps 747 mmHg 89%
02:00 +2°C° 0 mm 2 mps 747 mmHg 92%
03:00 +2°C° 0 mm 2 mps 747 mmHg 92%
04:00 +2°C° 0 mm 2 mps 746 mmHg 91%
05:00 +2°C° 0 mm 2 mps 746 mmHg 90%
06:00 +2°C° 0 mm 2 mps 746 mmHg 88%
07:00 +3°C° 0 mm 2 mps 746 mmHg 86%
08:00 +3°C° 0 mm 2 mps 745 mmHg 84%
09:00 +2°C° 0.4 mm 3 mps 745 mmHg 87%
10:00 +2°C° 0.4 mm 3 mps 745 mmHg 90%
11:00 +2°C° 0.4 mm 3 mps 744 mmHg 93%
12:00 +3°C° 0.9 mm 3 mps 744 mmHg 94%
13:00 +3°C° 0.9 mm 3 mps 744 mmHg 94%
14:00 +3°C° 0.9 mm 3 mps 743 mmHg 95%
15:00 +3°C° 0.2 mm 3 mps 743 mmHg 95%
16:00 +4°C° 0.2 mm 3 mps 742 mmHg 96%
17:00 +5°C° 0.2 mm 2 mps 742 mmHg 96%
18:00 +5°C° 0 mm 2 mps 742 mmHg 97%
19:00 +6°C° 0 mm 1 mps 742 mmHg 97%
20:00 +6°C° 0 mm 1 mps 742 mmHg 97%
21:00 +6°C° 0 mm 1 mps 742 mmHg 98%
22:00 +6°C° 0 mm 1 mps 742 mmHg 98%
23:00 +6°C° 0 mm 1 mps 741 mmHg 98%

22 Octubre, Jueves

Tiempo Temperatura Precipitaciones Viento Presión Humedad
00:00 +6°C° 0 mm 1 mps 742 mmHg 98%
01:00 +6°C° 0 mm 1 mps 742 mmHg 98%
02:00 +6°C° 0 mm 1 mps 742 mmHg 97%
03:00 +6°C° 0 mm 1 mps 741 mmHg 97%
04:00 +6°C° 0 mm 1 mps 741 mmHg 97%
05:00 +6°C° 0 mm 1 mps 741 mmHg 97%
06:00 +5°C° 0.1 mm 2 mps 741 mmHg 96%
07:00 +5°C° 0.1 mm 2 mps 740 mmHg 95%
08:00 +5°C° 0.1 mm 3 mps 740 mmHg 94%
09:00 +5°C° 0.7 mm 3 mps 739 mmHg 95%
10:00 +5°C° 0.7 mm 3 mps 739 mmHg 95%
11:00 +5°C° 0.7 mm 4 mps 739 mmHg 96%
12:00 +6°C° 0.1 mm 4 mps 739 mmHg 93%
13:00 +7°C° 0.1 mm 4 mps 738 mmHg 91%
14:00 +8°C° 0.1 mm 4 mps 738 mmHg 88%
15:00 +8°C° 0 mm 4 mps 738 mmHg 89%
16:00 +8°C° 0 mm 4 mps 738 mmHg 89%
17:00 +10°C° 0 mm 4 mps 738 mmHg 89%
18:00 +10°C° 0 mm 4 mps 738 mmHg 90%
19:00 +10°C° 0 mm 4 mps 739 mmHg 90%
20:00 +10°C° 0 mm 4 mps 739 mmHg 91%
21:00 +10°C° 0 mm 4 mps 739 mmHg 92%
22:00 +10°C° 0 mm 4 mps 739 mmHg 93%
23:00 +8°C° 0 mm 4 mps 739 mmHg 94%

23 Octubre, Viernes

Tiempo Temperatura Precipitaciones Viento Presión Humedad
00:00 +8°C° 0 mm 4 mps 739 mmHg 94%
01:00 +8°C° 0 mm 4 mps 739 mmHg 94%
02:00 +8°C° 0 mm 4 mps 740 mmHg 94%
03:00 +8°C° 0 mm 4 mps 739 mmHg 94%
04:00 +8°C° 0 mm 4 mps 739 mmHg 94%
05:00 +8°C° 0 mm 4 mps 739 mmHg 94%
06:00 +8°C° 0 mm 4 mps 739 mmHg 94%
07:00 +8°C° 0 mm 4 mps 738 mmHg 94%
08:00 +8°C° 0 mm 4 mps 738 mmHg 94%
09:00 +9°C° 0 mm 5 mps 738 mmHg 91%
10:00 +10°C° 0 mm 5 mps 738 mmHg 88%
11:00 +11°C° 0 mm 6 mps 737 mmHg 84%
12:00 +11°C° 0.1 mm 6 mps 737 mmHg 83%
13:00 +11°C° 0.1 mm 6 mps 737 mmHg 82%
14:00 +13°C° 0.1 mm 6 mps 736 mmHg 80%
15:00 +11°C° 0.3 mm 6 mps 736 mmHg 82%
16:00 +12°C° 0.3 mm 5 mps 736 mmHg 84%
17:00 +10°C° 0.3 mm 5 mps 735 mmHg 86%
18:00 +10°C° 0.8 mm 5 mps 735 mmHg 87%
19:00 +10°C° 0.8 mm 5 mps 735 mmHg 88%
20:00 +9°C° 0.8 mm 5 mps 735 mmHg 89%
21:00 +10°C° 0.2 mm 4 mps 735 mmHg 90%
22:00 +10°C° 0.2 mm 4 mps 735 mmHg 90%
23:00 +10°C° 0.2 mm 4 mps 735 mmHg 91%

24 Octubre, Sábado

Tiempo Temperatura Precipitaciones Viento Presión Humedad
00:00 +10°C° 0 mm 4 mps 735 mmHg 92%
01:00 +10°C° 0 mm 3 mps 736 mmHg 93%
02:00 +9°C° 0 mm 3 mps 736 mmHg 94%
03:00 +9°C° 0 mm 3 mps 736 mmHg 94%
04:00 +8°C° 0 mm 3 mps 736 mmHg 93%
05:00 +7°C° 0 mm 2 mps 736 mmHg 93%
06:00 +7°C° 0 mm 2 mps 737 mmHg 92%
07:00 +6°C° 0 mm 2 mps 737 mmHg 91%
08:00 +6°C° 0 mm 2 mps 737 mmHg 90%
09:00 +7°C° 0 mm 2 mps 737 mmHg 86%
10:00 +8°C° 0 mm 2 mps 738 mmHg 82%
11:00 +8°C° 0 mm 2 mps 738 mmHg 78%
12:00 +9°C° 0 mm 2 mps 738 mmHg 77%
13:00 +9°C° 0 mm 2 mps 738 mmHg 75%
14:00 +10°C° 0 mm 1 mps 738 mmHg 74%
15:00 +9°C° 0 mm 1 mps 738 mmHg 78%
16:00 +8°C° 0 mm 1 mps 738 mmHg 82%
17:00 +7°C° 0 mm 1 mps 738 mmHg 86%
18:00 +6°C° 0 mm 0 mps 738 mmHg 87%
19:00 +6°C° 0 mm 0 mps 738 mmHg 87%
20:00 +6°C° 0 mm 0 mps 738 mmHg 87%
21:00 +7°C° 0 mm 1 mps 738 mmHg 88%
22:00 +7°C° 0 mm 1 mps 739 mmHg 88%
23:00 +7°C° 0 mm 1 mps 739 mmHg 88%

25 Octubre, Domingo

Tiempo Temperatura Precipitaciones Viento Presión Humedad
00:00 +6°C° 0 mm 2 mps 739 mmHg 88%
01:00 +6°C° 0 mm 2 mps 738 mmHg 88%
02:00 +6°C° 0 mm 2 mps 738 mmHg 89%
03:00 +6°C° 0.2 mm 2 mps 738 mmHg 89%
04:00 +6°C° 0.2 mm 2 mps 738 mmHg 90%
05:00 +6°C° 0.2 mm 2 mps 738 mmHg 91%
06:00 +6°C° 0.3 mm 2 mps 738 mmHg 91%
07:00 +6°C° 0.3 mm 2 mps 739 mmHg 92%
08:00 +6°C° 0.3 mm 2 mps 739 mmHg 93%
09:00 +6°C° 0.3 mm 2 mps 739 mmHg 93%
10:00 +5°C° 0.3 mm 3 mps 739 mmHg 92%
11:00 +5°C° 0.3 mm 3 mps 740 mmHg 92%
12:00 +5°C° 0.2 mm 3 mps 740 mmHg 92%
13:00 +7°C° 0.2 mm 3 mps 740 mmHg 91%
14:00 +7°C° 0.2 mm 3 mps 741 mmHg 91%
15:00 +6°C° 0 mm 2 mps 741 mmHg 91%
16:00 +6°C° 0 mm 2 mps 741 mmHg 92%
17:00 +6°C° 0 mm 2 mps 742 mmHg 93%
18:00 +6°C° 0 mm 2 mps 742 mmHg 93%
19:00 +5°C° 0 mm 2 mps 742 mmHg 93%
20:00 +5°C° 0 mm 2 mps 743 mmHg 94%
21:00 +5°C° 0 mm 2 mps 743 mmHg 94%
22:00 +5°C° 0 mm 1 mps 744 mmHg 94%
23:00 +5°C° 0 mm 1 mps 744 mmHg 94%
Mostrar más

Necesitamos Su Consentimiento

Meteoprog y nuestros Proveedores de Servicios pueden almacenar y acceder a sus datos personales como cookies, identificadores de dispositivo u otras tecnologías similares de su dispositivo y procesar dichos datos para personalizar contenido y anuncios, además de ofrecer funciones de redes sociales y analizar el tráfico.

  • Almacenar y/o acceder a información en su dispositivo

    Se puede almacenar o acceder a cookies, identificadores de dispositivo u otra información de su dispositivo para los fines anteriormente indicados.

  • Anuncios y contenido personalizados, medición de anuncios y contenido, percepciones del público, y desarrollo de productos

    Los anuncios y el contenido pueden personalizarse en base a su perfil. Se pueden añadir más datos para personalizar mejor los anuncios y contenidos. Se puede medir el rendimiento de los anuncios y contenidos. Se puede obtener la percepción sobre el público que ha visto los anuncios y contenidos. Dichos datos pueden usarse para desarrollar o mejorar la experiencia del usuario, sistemas y software.

Al hacer clic en ‘Estoy De Acuerdo’ usted permitirá el uso de las cookies, identificadores de dispositivo, balizas web u otras tecnologías similares indicadas. Su configuración puede cambiarse desde el navegador de su dispositivo.

Para ciertos fines, los intereses legítimos pueden ser considerados por encima del consentimiento. Puede leer más sobre ello en nuestra Política de Privacidad y Cookies.